Tracking 28081 objects as of 26-Sep-2023
HD Live streaming from Space Station
objects crossing your sky now

STARLINK-5502

Track STARLINK-5502 now!
10-day predictions
STARLINK-5502 is classified as:


NORAD ID: 55644
Int'l Code: 2023-021S
Perigee: 576.8 km
Apogee: 581.7 km
Inclination: 70.0 °
Period: 96.1 minutes
Semi major axis: 6950 km
RCS: Unknown
Launch date: February 17, 2023
Source: United States (US)
Launch site: AIR FORCE WESTERN TEST RANGE (AFWTR)
Your satellite tracking list
Your tracking list is empty




NASA's NSSDC Master Catalog

Two Line Element Set (TLE):
1 55644U 23021S   23269.12977488  .00001380  00000-0  12342-3 0  9997
2 55644  69.9981 282.5382 0003530 267.5605  92.5150 14.98323619 34342
Source of the keplerian elements: AFSPC